Orbital elements:
2015 XJ351 Earth MOID = 0.0009 AU
Epoch 2016 Jan. 13.0 TT = JDT 2457400.5 MPC
M 73.26200 (2000.0) P Q
n 0.61743289 Peri. 76.80570 +0.82786261 +0.46001344
a 1.3658706 Node 254.99479 -0.54910444 +0.78149288
e 0.4294771 Incl. 19.40940 +0.11457667 +0.42149319
P 1.60 H 22.4 G 0.15 U 8